カタログに戻る

AMC-1

GE-1

運用中通信GEO
NORAD 24315·PAYLOAD·🇱🇺 Luxembourg

打ち上げ Sep 8, 1996 から Cape Canaveral Space Force Station

Loading…

TLE

最新Source: Space-Track

元期: Sep 14, 2026, 15:11 UTC

1 24315U 96054A   26257.63325101 -.00000144  00000-0  00000-0 0  9992
2 24315   9.3295  58.1533 0007914 207.8441 130.2629  0.99511912 47121

AllMySatでAMC-1をリアルタイム追跡

Download on the App Store